EW9704 Weather Reports


Display with metric or nautical units.
time (UTC)temp
F
wind
direction
speed
MPH
gust
MPH
rain 1hr
in
rain 24hr
in
rain mn
in
humidity
%
barometer
mb
20220516041522 78 178 5.0 11.0 0.00 0.00 0.00 44 1010.6
20220516040031 78 157 3.0 8.0 0.00 0.00 0.00 47 1010.7
20220516034516 79 147 1.0 9.0 0.00 0.00 0.00 50 1011.0
20220516033009 79 260 0.0 8.0 0.00 0.00 0.00 53 1010.5
20220516031506 79 247 2.0 6.0 0.00 0.00 0.00 56 1010.1
20220516030104 80 151 1.0 4.0 0.00 0.00 0.00 59 1009.8
20220516024604 80 159 1.0 6.0 0.00 0.00 0.00 59 1009.4
20220516023052 80 142 1.0 5.0 0.00 0.00 0.00 59 1009.4
20220516021552 80 160 0.0 4.0 0.00 0.00 0.00 56 1009.4
20220516020042 81 150 1.0 3.0 0.00 0.00 0.00 57 1009.6
20220516014538 81 149 0.0 1.0 0.00 0.00 0.00 58 1009.8
20220516013038 82 292 0.0 1.0 0.00 0.00 0.00 59 1009.9
20220516011529 84 293 0.0 1.0 0.00 0.00 0.00 59 1009.7
20220516010024 86 292 0.0 2.0 0.00 0.00 0.00 57 1009.6
20220516004536 89 247 0.0 2.0 0.00 0.00 0.00 54 1009.6
20220516003026 89 156 1.0 5.0 0.00 0.00 0.00 52 1009.6
20220516001514 90 257 2.0 7.0 0.00 0.00 0.00 51 1009.4
20220516000012 90 247 2.0 8.0 0.00 0.00 0.00 51 1009.4
20220515234509 90 214 6.0 12.0 0.00 0.00 0.00 50 1009.4
20220515233101 91 219 5.0 10.0 0.00 0.00 0.00 50 1009.4
20220515231556 91 195 5.0 13.0 0.00 0.00 0.00 50 1009.4
20220515230100 91 230 5.0 15.0 0.00 0.00 0.00 49 1009.6
20220515224546 91 262 4.0 11.0 0.00 0.00 0.00 51 1009.6
20220515223042 91 188 3.0 11.0 0.00 0.00 0.00 53 1009.7
20220515221538 92 240 5.0 10.0 0.00 0.00 0.00 52 1009.8
20220515220033 92 273 1.0 10.0 0.00 0.00 0.00 53 1010.0
20220515214532 92 252 5.0 12.0 0.00 0.00 0.00 52 1010.2
20220515213033 92 148 4.0 11.0 0.00 0.00 0.00 53 1010.3
20220515211519 92 172 2.0 9.0 0.00 0.00 0.00 53 1010.5
20220515210016 92 169 5.0 14.0 0.00 0.00 0.00 54 1010.7
20220515204514 92 247 2.0 10.0 0.00 0.00 0.00 53 1011.1
20220515203005 92 257 3.0 10.0 0.00 0.00 0.00 53 1011.3
20220515201508 91 27 1.0 12.0 0.00 0.00 0.00 56 1011.6
20220515200058 91 253 4.0 11.0 0.00 0.00 0.00 55 1011.8
20220515194558 91 217 3.0 10.0 0.00 0.00 0.00 56 1012.1
20220515193058 90 166 3.0 7.0 0.00 0.00 0.00 57 1012.3
20220515191551 90 155 3.0 10.0 0.00 0.00 0.00 57 1012.6
20220515190039 90 265 5.0 10.0 0.00 0.00 0.00 56 1012.7
20220515184533 89 157 2.0 12.0 0.00 0.00 0.00 56 1012.9
20220515183040 89 159 2.0 10.0 0.00 0.00 0.00 57 1013.1
20220515181524 88 243 5.0 12.0 0.00 0.00 0.00 58 1013.3
20220515180019 87 159 2.0 9.0 0.00 0.00 0.00 59 1013.5
20220515174518 87 189 2.0 11.0 0.00 0.00 0.00 59 1013.6
20220515173010 86 247 3.0 9.0 0.00 0.00 0.00 58 1013.9
20220515171505 85 178 2.0 7.0 0.00 0.00 0.00 57 1014.0
20220515170001 84 247 4.0 10.0 0.00 0.00 0.00 55 1014.2
20220515164606 84 155 2.0 6.0 0.00 0.00 0.00 52 1014.4
20220515163052 83 164 3.0 9.0 0.00 0.00 0.00 47 1014.6
20220515161550 82 160 0.0 9.0 0.00 0.00 0.00 39 1014.6
20220515160044 81 160 0.0 6.0 0.00 0.00 0.00 35 1014.5
20220515154539 81 219 3.0 7.0 0.00 0.00 0.00 28 1014.6
20220515153037 80 169 1.0 5.0 0.00 0.00 0.00 19 1014.5
20220515151529 79 297 2.0 7.0 0.00 0.00 0.00 23 1014.5
20220515150025 78 290 2.0 8.0 0.00 0.00 0.00 6 1014.5
20220515144520 78 242 1.0 8.0 0.00 0.00 0.00 1 1014.5
20220515143016 76 160 1.0 8.0 0.00 0.00 0.00 1 1014.4
20220515141512 75 233 0.0 7.0 0.00 0.00 0.00 1 1014.3
20220515140010 73 168 3.0 8.0 0.00 0.00 0.00 1 1014.2
20220515134502 73 235 2.0 7.0 0.00 0.00 0.00 1 1014.2
20220515133058 72 189 2.0 8.0 0.00 0.00 0.00 1 1014.0
20220515131556 72 242 2.0 7.0 0.00 0.00 0.00 1 1014.2
20220515130049 71 152 0.0 6.0 0.00 0.00 0.00 1 1014.2
20220515124600 70 170 0.0 0.0 0.00 0.00 0.00 1 1014.1
20220515123043 70 309 0.0 3.0 0.00 0.00 0.00 1 1013.7
20220515121535 70 241 0.0 5.0 0.00 0.00 0.00 1 1013.5
20220515120034 69 261 0.0 3.0 0.00 0.00 0.00 1 1013.4
20220515114530 70 144 0.0 7.0 0.00 0.00 0.00 1 1013.5
20220515113022 70 161 1.0 5.0 0.00 0.00 0.00 1 1013.1
20220515111518 70 235 1.0 5.0 0.00 0.00 0.00 1 1012.8
20220515110030 70 286 0.0 5.0 0.00 0.00 0.00 1 1012.8
20220515104513 70 192 2.0 6.0 0.00 0.00 0.00 1 1012.7
20220515103010 70 278 2.0 6.0 0.00 0.00 0.00 1 1012.7
20220515101505 70 278 2.0 8.0 0.00 0.00 0.00 1 1012.7
20220515100058 70 289 0.0 7.0 0.00 0.00 0.00 1 1012.5
20220515094600 70 164 2.0 7.0 0.00 0.00 0.00 1 1012.5
20220515093053 70 228 1.0 6.0 0.00 0.00 0.00 1 1012.5
20220515091551 70 209 2.0 8.0 0.00 0.00 0.00 1 1012.5
20220515090046 70 257 3.0 6.0 0.00 0.00 0.00 1 1012.7
20220515084606 70 282 1.0 6.0 0.00 0.00 0.00 1 1012.8
20220515083039 70 254 1.0 5.0 0.00 0.00 0.00 1 1012.9
20220515081535 70 266 2.0 5.0 0.00 0.00 0.00 1 1013.0
20220515080028 70 266 0.0 4.0 0.00 0.00 0.00 1 1013.1
20220515074527 71 295 0.0 3.0 0.00 0.00 0.00 1 1013.3
20220515073019 71 242 1.0 3.0 0.00 0.00 0.00 1 1013.4
20220515071517 72 170 0.0 4.0 0.00 0.00 0.00 1 1013.6
20220515070010 72 165 0.0 4.0 0.00 0.00 0.00 1 1013.5
20220515064506 73 269 1.0 4.0 0.00 0.00 0.00 1 1013.6
20220515063007 73 238 0.0 4.0 0.00 0.00 0.00 1 1013.5
20220515061611 74 262 0.0 6.0 0.00 0.00 0.00 1 1013.3
20220515060053 74 254 0.0 6.0 0.00 0.00 0.00 1 1013.3
20220515054603 74 273 1.0 5.0 0.00 0.00 0.00 5 1013.3
20220515053101 75 268 0.0 5.0 0.00 0.00 0.00 16 1013.2
20220515051540 76 186 1.0 6.0 0.00 0.00 0.00 24 1013.3
20220515050036 76 240 2.0 7.0 0.00 0.00 0.00 30 1013.1
20220515044532 77 162 3.0 9.0 0.00 0.00 0.00 33 1013.0
20220515043045 77 142 3.0 8.0 0.00 0.00 0.00 36 1012.9